{"data":{"norad_id":56711,"intl_designator":"2023-068B","name":"ONEWEB-0668","alt_names":[],"object_type":"PAYLOAD","status":"ACTIVE","operator":null,"country":"UK","launch_date":"2023-05-20","launch_site_code":"AFWTR","launch_vehicle":null,"mission":null,"orbit_class":"UNKNOWN","rcs_meters":null,"size_class":null,"mass_kg":null,"dimensions":null,"purposes":["comms"],"wikipedia_slug":null,"has_3d_model":false,"image_url":null,"decayed_at":null,"tle_current":{"epoch":"2026-09-19T14:08:23.495712Z","epoch_age_seconds":100746,"freshness":"FRESH","line1":"1 56711U 23068B   26262.58916083 -.00000001  00000+0 -36079-4 0  9998","line2":"2 56711  87.9155 210.0305 0001724  91.0603 269.0726 13.16594730164205","mean_motion":13.1659473,"eccentricity":0.0001724,"inclination_deg":87.9155,"raan_deg":210.0305,"arg_perigee_deg":91.0603,"mean_anomaly_deg":269.0726,"bstar":-3.6079e-5,"rev_number":16420,"period_min":109.37306425342,"perigee_km":1196.4487688607,"apogee_km":1199.0609363714,"semimajor_km":7575.891852616,"source":"CELESTRAK","updated_at":"2026-09-20T09:00:44.794490Z"}}}